Louisa, VA

3:50 AM EST on December 11, 2019 (GMT -0500)
Louisa County-Freeman

Weather History for KLKU - November, 2019

Change the Weather History Date:

Tuesday, November 12, 2019

  Actual Average (KOMH) Record (KOMH)
Temperature  
Mean Temperature 41 °F -  
Max Temperature 57 °F 58 °F 77 °F (1964)
Min Temperature 25 °F 37 °F 18 °F (1957)
Degree Days  
Heating Degree Days 24    
Moisture  
Dew Point 31 °F    
Average Humidity 69    
Maximum Humidity 98    
Minimum Humidity 46    
Precipitation  
Precipitation 0.31 in - - ()
Sea Level Pressure  
Sea Level Pressure 30.04 in    
Wind  
Wind Speed 7 mph ()    
Max Wind Speed 16 mph    
Max Gust Speed 26 mph    
Visibility 9.5 miles    
Events Rain , Snow    
Averages and records for this station are not official NWS values.
T = Trace of Precipitation, MM = Missing Value Source: Averaged Metar Reports

Daily Weather History Graph

Daily Weather History Graph

Search for Another Location

Airport or City:

Astronomy

Nov. 12, 2019 Rise Set
Actual Time 6:49 AM EST 5:02 PM EST
Civil Twilight 6:21 AM EST 5:30 PM EST
Nautical Twilight 5:49 AM EST 6:01 PM EST
Astronomical Twilight 5:18 AM EST 6:33 PM EST
Moon 5:28 PM EST (11/12) 6:39 AM EST (11/12)
Length of Visible Light 11h 09m
Length of Day
10h 13m
Full, 100% of the Moon is Illuminated
Nov 12
Full
Nov 19
Last Quarter
Nov 26
New
Dec 4
First Quarter
Dec 12
Full

Hourly Weather History & Observations

Time (EST) Temp. Windchill Dew Point Humidity Pressure Visibility Wind Dir Wind Speed Gust Speed Precip Events Conditions
12:35 AM 57.4 °F - 40.8 °F 54% 29.88 in 10.0 mi SW 8.1 mph - N/A   Clear
12:55 AM 57.2 °F - 41.0 °F 55% 29.87 in 10.0 mi SSW 9.2 mph - N/A   Clear
1:15 AM 56.8 °F - 41.0 °F 55% 29.87 in 10.0 mi SSW 5.8 mph - N/A   Clear
1:35 AM 56.7 °F - 41.2 °F 56% 29.87 in 10.0 mi South 4.6 mph - N/A   Mostly Cloudy
1:55 AM 56.1 °F - 41.2 °F 57% 29.86 in 10.0 mi SW 5.8 mph - N/A   Overcast
2:15 AM 55.8 °F - 41.2 °F 58% 29.87 in 10.0 mi SSW 6.9 mph - N/A   Overcast
2:35 AM 55.8 °F - 41.4 °F 58% 29.85 in 10.0 mi SSW 6.9 mph - N/A   Overcast
2:55 AM 55.6 °F - 41.5 °F 59% 29.85 in 10.0 mi SSW 6.9 mph - N/A   Overcast
3:35 AM 55.8 °F - 41.9 °F 60% 29.83 in 10.0 mi West 5.8 mph - N/A   Overcast
3:55 AM 55.9 °F - 42.3 °F 60% 29.85 in 10.0 mi SSW 5.8 mph - N/A   Overcast
4:15 AM 55.8 °F - 42.4 °F 61% 29.85 in 10.0 mi SSW 8.1 mph - N/A   Overcast
4:35 AM 54.3 °F - 44.1 °F 68% 29.85 in 10.0 mi WSW 5.8 mph - N/A Rain Light Rain
4:55 AM 53.2 °F - 45.1 °F 74% 29.85 in 10.0 mi WSW 4.6 mph - N/A Rain Light Rain
5:35 AM 51.1 °F - 47.5 °F 87% 29.86 in 10.0 mi SW 3.5 mph - 0.02 in Rain Light Rain
5:55 AM 50.0 °F - 48.4 °F 94% 29.86 in 10.0 mi Calm Calm - 0.03 in Rain Light Rain
6:15 AM 50.2 °F - 47.8 °F 92% 29.87 in 10.0 mi SSW 4.6 mph - 0.01 in Rain Light Rain
6:35 AM 49.8 °F - 48.0 °F 94% 29.87 in 10.0 mi SW 3.5 mph - 0.01 in Rain Light Rain
6:55 AM 50.0 °F - 48.0 °F 93% 29.88 in 10.0 mi WSW 4.6 mph - 0.01 in   Overcast
7:15 AM 50.4 °F - 48.2 °F 92% 29.89 in 10.0 mi West 4.6 mph - N/A Rain Light Rain
7:35 AM 50.4 °F - 48.4 °F 93% 29.91 in 7.0 mi West 8.1 mph - 0.01 in Rain Light Rain
7:55 AM 50.2 °F - 47.3 °F 90% 29.93 in 10.0 mi NW 11.5 mph 17.3 mph 0.02 in Rain Light Rain
8:15 AM 46.6 °F - 41.7 °F 83% 29.95 in 10.0 mi NNW 11.5 mph 18.4 mph 0.01 in Rain Light Rain
8:35 AM 45.0 °F 40.1 °F 39.9 °F 82% 29.97 in 10.0 mi NW 9.2 mph - 0.02 in Rain Light Rain
8:55 AM 44.1 °F 39.5 °F 40.5 °F 87% 30.00 in 10.0 mi NW 8.1 mph - 0.03 in Rain Rain
9:15 AM 42.3 °F 35.5 °F 37.0 °F 82% 30.01 in 10.0 mi NW 12.7 mph 20.7 mph 0.01 in Rain Light Rain
9:35 AM 40.1 °F 31.6 °F 36.0 °F 85% 30.03 in 7.0 mi NW 16.1 mph 21.9 mph 0.03 in Rain Rain
9:55 AM 39.2 °F 30.8 °F 35.1 °F 85% 30.03 in 7.0 mi NNW 15.0 mph 24.2 mph 0.06 in Rain Rain
10:15 AM 39.2 °F 34.2 °F 35.6 °F 87% 30.04 in 10.0 mi North 6.9 mph 18.4 mph 0.01 in Rain Light Rain
10:35 AM 38.7 °F 30.9 °F 34.3 °F 84% 30.05 in 7.0 mi NW 12.7 mph 20.7 mph 0.03 in Rain Rain
10:55 AM 37.4 °F 30.8 °F 34.5 °F 89% 30.06 in 7.0 mi NW 9.2 mph - 0.06 in Rain Rain
11:15 AM 36.7 °F 30.5 °F 34.7 °F 93% 30.06 in 10.0 mi North 8.1 mph - 0.03 in Rain Rain
11:35 AM 35.8 °F 29.4 °F 34.5 °F 95% 30.06 in 10.0 mi North 8.1 mph - 0.05 in Rain Rain
11:55 AM 33.3 °F 27.9 °F 32.2 °F 96% 30.06 in 2.0 mi NNE 5.8 mph - 0.08 in Snow Light Snow
12:15 PM 32.9 °F 29.8 °F 32.4 °F 98% 30.05 in 3.0 mi East 3.5 mph - 0.01 in Snow Light Snow
12:35 PM 33.1 °F 30.0 °F 32.5 °F 98% 30.04 in 10.0 mi East 3.5 mph - 0.01 in   Overcast
12:55 PM 33.3 °F 30.2 °F 32.7 °F 98% 30.04 in 10.0 mi East 3.5 mph - 0.02 in   Overcast
1:15 PM 34.0 °F 31.0 °F 33.1 °F 96% 30.04 in 10.0 mi NE 3.5 mph - N/A   Overcast
1:55 PM 35.6 °F 31.7 °F 34.0 °F 94% 30.04 in 10.0 mi North 4.6 mph - N/A   Scattered Clouds
2:15 PM 36.9 °F 34.3 °F 34.3 °F 91% 30.03 in 10.0 mi NNW 3.5 mph - N/A   Scattered Clouds
2:35 PM 39.7 °F 33.7 °F 35.1 °F 83% 30.04 in 10.0 mi NNW 9.2 mph - N/A   Mostly Cloudy
2:55 PM 39.4 °F 33.2 °F 31.1 °F 72% 30.04 in 10.0 mi NNW 9.2 mph - N/A   Scattered Clouds
3:15 PM 42.1 °F 35.2 °F 26.1 °F 53% 30.06 in 10.0 mi North 12.7 mph 24.2 mph N/A   Mostly Cloudy
3:35 PM 39.4 °F 33.2 °F 25.0 °F 56% 30.06 in 10.0 mi NW 9.2 mph - N/A   Mostly Cloudy
3:55 PM 39.9 °F 33.9 °F 24.8 °F 55% 30.07 in 10.0 mi NNW 9.2 mph - N/A   Scattered Clouds
4:15 PM 39.4 °F 31.8 °F 21.7 °F 49% 30.08 in 10.0 mi NW 12.7 mph 20.7 mph N/A   Clear
4:35 PM 37.4 °F 28.2 °F 18.9 °F 47% 30.11 in 10.0 mi NNW 16.1 mph 21.9 mph N/A   Clear
4:55 PM 35.8 °F 26.1 °F 16.5 °F 46% 30.12 in 10.0 mi NW 16.1 mph 26.5 mph N/A   Clear
5:15 PM 34.7 °F 25.9 °F 15.6 °F 46% 30.14 in 10.0 mi NW 12.7 mph - N/A   Clear
5:35 PM 34.0 °F 25.5 °F 15.1 °F 46% 30.15 in 10.0 mi NW 11.5 mph 21.9 mph N/A   Clear
5:55 PM 33.4 °F 23.9 °F 14.5 °F 46% 30.17 in 10.0 mi NW 13.8 mph 18.4 mph N/A   Clear
6:15 PM 32.9 °F 24.1 °F 14.0 °F 46% 30.18 in 10.0 mi NW 11.5 mph 18.4 mph N/A   Clear
6:35 PM 31.8 °F 22.8 °F 14.5 °F 49% 30.19 in 10.0 mi NW 11.5 mph 17.3 mph N/A   Scattered Clouds
6:55 PM 31.5 °F 21.8 °F 13.6 °F 48% 30.21 in 10.0 mi NW 12.7 mph - N/A   Clear
7:35 PM 30.0 °F 20.5 °F 12.4 °F 48% 30.23 in 10.0 mi NW 11.5 mph - N/A   Clear
7:55 PM 29.5 °F 20.4 °F 12.2 °F 49% 30.24 in 10.0 mi NW 10.4 mph - N/A   Clear
8:15 PM 28.6 °F 21.5 °F 12.4 °F 51% 30.26 in 10.0 mi NW 6.9 mph - N/A   Clear
8:35 PM 28.0 °F 20.0 °F 12.4 °F 52% 30.27 in 10.0 mi NW 8.1 mph - N/A   Clear
8:55 PM 27.5 °F 19.3 °F 12.2 °F 53% 30.28 in 10.0 mi NW 8.1 mph - N/A   Clear
9:15 PM 28.2 °F 18.9 °F 11.7 °F 50% 30.28 in 10.0 mi NW 10.4 mph - N/A   Clear
9:55 PM 28.4 °F 20.4 °F 12.2 °F 51% 30.29 in 10.0 mi NW 8.1 mph - N/A   Clear
10:15 PM 27.5 °F 19.3 °F 11.7 °F 51% 30.30 in 10.0 mi NW 8.1 mph - N/A   Mostly Cloudy
10:35 PM 27.1 °F 18.9 °F 11.8 °F 53% 30.30 in 10.0 mi WNW 8.1 mph - N/A   Overcast
10:55 PM 27.1 °F 18.9 °F 11.8 °F 53% 30.30 in 10.0 mi NW 8.1 mph - N/A   Overcast
11:35 PM 25.9 °F - 13.5 °F 59% 30.32 in 10.0 mi Calm Calm - N/A   Overcast
11:55 PM 27.0 °F 21.6 °F 14.7 °F 60% 30.32 in 10.0 mi North 4.6 mph - N/A   Overcast